SCP
0 0 0 0 0 0 0 0 0 0 0 -0 -0 -0 -0 0 -0 -0 0 0 -0 0 0 0 0 0 -0 -0 -0 -0 -0 0 0 1 1 1 1 1 1 0 0 0 0 0
0 0 0 0 0 0 0 0 0 0 0 0 0 -0 0 -0 -0 -0 -0 -0 -0 0 0 1 0 0 0 0 0 0 0 0 1 1 1 1 1 1 1 0 0 0 0 0
0 0 0 0 0 0 0 0 0 0 0 -0 0 0 0 -0 0 -0 -0 0 -0 0 0 0 0 0 0 1 1 1 0 0 1 1 1 1 1 1 1 0 0 0 0 0
0 0 0 0 0 0 0 0 0 0 0 0 0 0 0 0 0 0 0 0 -0 0 0 0 0 1 1 1 1 1 1 1 1 1 1 1 1 1 1 0 0 0 0 0
0 0 0 0 0 0 0 0 0 0 0 0 0 0 -0 0 0 0 0 0 0 0 0 0 0 0 1 1 1 1 1 1 1 1 1 1 1 1 0 0 0 0 0 0
0 0 0 0 0 0 0 0 0 0 0 0 0 0 -0 0 0 0 0 0 1 0 0 0 1 0 1 1 1 1 1 1 1 1 1 1 1 0 0 0 0 0 0 0
0 0 0 0 0 0 0 0 0 0 0 0 0 0 0 0 0 0 0 0 0 0 0 0 1 0 1 1 1 1 1 1 1 1 1 1 0 0 0 0 0 0 0 0
0 0 0 0 0 0 0 0 0 0 0 0 0 0 0 0 0 0 0 0 0 0 0 0 0 0 1 1 1 1 1 1 1 0 0 0 0 0 0 0 0 0 0 0
0 0 0 0 0 0 0 0 0 0 0 0 0 0 0 0 0 0 0 0 0 0 0 0 0 0 0 0 0 0 0 0 0 0 0 0 0 0 0 0 0 0 0 0
0 0 0 0 0 0 0 0 0 0 0 0 0 0 0 0 0 0 0 0 0 0 0 0 0 0 0 0 0 0 0 0 0 0 0 0 0 0 0 0 0 0 0 0
0 0 0 0 0 0 0 0 0 0 0 0 0 0 0 0 0 0 0 0 0 0 0 0 0 0 0 0 0 0 0 0 0 0 0 0 0 0 0 0 0 0 0 0
0 0 0 0 0 0 0 0 0 0 0 0 0 0 0 0 0 0 0 0 0 0 0 0 0 0 0 0 0 0 0 0 0 0 0 0 0 0 0 0 0 0 0 0
0 0 0 0 0 0 0 0 0 0 0 0 0 0 0 0 0 0 0 0 0 0 0 0 0 0 0 0 0 0 0 0 0 0 0 0 0 0 0 0 0 0 0 0
0 0 0 0 0 0 0 0 0 0 0 0 0 0 0 0 0 0 0 0 0 0 0 0 0 0 0 0 0 0 0 0 0 0 0 0 0 0 0 0 0 0 0 0
0 0 0 0 0 0 0 0 0 0 0 0 0 0 0 0 -0 -0 0 0 0 0 0 0 0 0 0 0 0 0 0 0 0 0 0 0 0 0 0 0 0 0 0 0
0 0 0 0 0 0 0 0 0 0 0 0 0 0 0 0 -0 0 -0 0 0 0 0 0 0 0 0 0 0 0 0 0 0 0 0 0 0 0 0 0 0 0 0 0
0 0 0 0 0 0 0 0 0 0 0 0 0 0 0 0 0 0 0 0 0 0 0 0 -0 0 0 0 0 0 0 0 0 0 0 0 0 0 0 0 0 0 0 0
0 0 0 0 0 0 0 0 0 0 0 0 0 0 0 0 0 0 0 0 0 0 0 0 0 0 0 0 0 0 0 0 0 0 0 0 0 0 0 0 0 0 0 0
0 0 0 0 0 0 0 0 0 0 0 0 0 0 0 0 0 0 0 0 0 0 0 0 0 0 0 0 0 0 0 0 0 0 0 0 0 0 0 0 0 0 0 0
0 0 0 0 0 0 0 0 0 0 0 0 0 0 0 0 0 0 0 0 1 0 0 0 0 1 0 0 0 0 0 0 0 0 0 0 0 0 0 0 0 0 0 0
0 0 0 0 0 0 0 0 0 0 0 0 0 0 0 0 0 0 0 0 0 -0 0 0 1 1 0 0 0 0 0 0 0 0 0 0 0 0 0 0 0 0 0 0
0 0 0 0 0 0 0 0 0 0 0 0 0 0 0 0 0 0 0 0 0 0 0 0 1 0 0 0 0 0 0 0 0 0 0 0 0 0 0 0 0 0 0 0
0 0 0 0 0 0 0 0 0 0 0 0 0 0 0 0 0 0 0 0 0 0 0 0 1 0 0 0 0 0 0 0 0 0 0 0 0 0 0 0 0 0 0 0
0 0 0 0 0 0 0 0 0 0 0 0 0 -0 -0 0 0 0 0 -0 -0 0 0 0 0 0 0 0 0 0 0 0 0 0 0 0 0 0 0 0 0 0 0 0
0 0 0 0 0 0 0 0 0 0 0 0 0 0 -0 -0 -0 0 0 -0 -0 0 0 0 0 0 0 0 0 0 0 0 0 0 0 0 0 0 0 0 0 0 0 0
0 0 0 0 0 0 0 0 0 0 -0 0 0 0 0 0 -0 -0 -0 0 0 0 0 0 0 0 0 0 0 0 0 0 0 0 0 0 0 0 0 0 0 0 0 0
Wind_Speed_500mb
21 18 25 27 23 16 10 12 17 15 8 21 27 32 31 42 23 37 38 40 42 36 32 35 38 42 47 46 48 48 44 45 48 47 40 35 30 27 27 29 38 31 33 32
15 24 20 9 13 17 15 18 22 19 15 13 29 29 33 28 25 26 27 28 34 33 31 32 32 39 45 46 49 50 47 49 48 41 32 28 27 22 22 29 30 31 27 31
25 10 8 20 19 22 24 22 18 21 18 28 27 34 34 19 18 20 20 23 23 29 36 31 30 33 37 44 46 45 42 42 37 36 41 40 37 34 31 26 26 25 30 36
21 21 15 18 29 24 25 11 18 16 14 18 12 24 18 18 18 12 10 16 21 23 28 30 29 31 34 29 35 36 37 31 29 30 32 32 23 21 19 19 23 29 27 26
14 17 26 30 25 21 20 6 15 15 19 19 29 18 29 12 21 13 4 7 10 14 21 26 26 28 28 34 27 31 29 27 26 30 28 23 21 25 24 24 24 19 21 26
29 10 12 13 9 22 5 16 21 19 22 24 31 23 25 20 9 13 8 1 3 10 16 21 24 28 27 27 28 30 30 30 30 30 28 25 28 21 18 15 10 11 16 23
27 28 27 21 20 19 19 16 15 19 20 23 11 14 28 21 13 13 18 14 10 14 20 27 29 27 30 31 30 29 32 29 28 27 26 27 24 21 16 10 9 11 12 16
14 16 31 24 37 25 26 27 20 14 20 19 17 14 11 11 12 18 20 20 20 19 24 31 30 31 33 34 32 29 30 29 28 28 27 24 21 17 13 12 12 13 11 13
9 10 4 8 19 29 34 22 26 29 26 19 25 17 13 33 23 22 19 17 18 19 26 31 32 35 36 35 32 30 30 29 27 27 27 25 20 14 12 13 14 15 17 13
8 15 16 3 11 13 26 1 15 19 26 32 20 21 16 10 16 15 15 15 19 19 25 32 35 38 37 34 31 29 27 27 28 29 26 22 16 13 13 13 13 15 16 15
15 15 8 12 22 21 17 23 18 14 15 20 23 16 1 14 16 20 30 23 18 22 28 35 36 40 39 34 31 30 29 29 29 28 24 18 15 13 12 12 13 12 14 13
4 9 19 33 21 12 25 31 24 20 24 20 21 27 23 19 28 27 35 32 17 16 27 35 40 43 42 37 34 32 31 30 28 26 21 18 14 11 9 9 11 13 11 15
12 11 16 21 20 20 21 24 28 20 20 32 28 24 6 13 28 38 39 31 18 19 29 35 37 44 42 39 36 34 33 30 29 26 21 17 11 6 6 11 13 13 19 19
9 12 18 22 20 17 9 16 18 21 21 28 31 35 30 32 31 43 43 32 22 26 36 38 42 44 43 43 40 38 37 36 30 26 21 14 9 7 10 13 16 20 21 22
8 14 23 24 28 30 29 28 31 31 31 33 30 33 30 30 33 45 43 31 23 31 39 40 45 45 47 46 44 41 41 37 34 25 18 13 11 14 15 18 21 22 21 22
2 16 19 33 33 34 42 40 39 40 41 44 41 43 35 48 47 42 48 41 30 33 38 46 47 49 52 52 50 50 45 43 33 24 17 13 12 13 19 20 19 18 18 22
12 14 18 38 34 37 42 41 49 50 48 40 44 39 34 26 37 38 40 40 42 31 39 51 59 61 59 58 55 54 49 38 28 20 15 10 13 17 15 14 15 17 20 23
17 18 19 22 21 38 27 32 24 26 29 30 33 26 28 32 39 40 40 41 42 24 29 44 51 55 56 47 44 40 38 32 25 19 12 12 15 10 10 14 16 19 20 23
36 23 17 22 26 39 50 37 31 29 32 16 29 29 41 39 45 32 49 40 35 27 24 39 48 51 50 48 46 43 40 32 24 16 12 11 8 9 11 15 17 19 22 24
26 28 23 17 28 23 8 17 11 23 29 23 25 25 32 38 21 12 65 52 38 19 14 32 44 51 54 51 50 45 40 31 22 16 13 9 7 10 11 15 18 20 21 24
14 16 33 29 26 18 17 26 22 16 9 26 29 29 33 24 31 52 54 47 33 13 12 23 41 54 54 56 53 44 36 27 21 15 10 9 7 9 12 16 20 19 20 24
21 14 15 22 31 35 14 13 18 22 32 38 36 36 41 42 47 49 49 41 27 11 12 28 38 44 49 51 48 44 34 26 17 14 10 6 5 7 12 17 18 19 21 25
20 27 15 20 10 7 5 7 19 28 44 43 52 54 53 55 53 56 54 40 24 12 16 28 38 42 43 45 43 42 33 22 18 12 8 5 5 8 11 13 15 17 22 27
23 34 19 29 27 37 43 37 46 47 31 42 45 56 57 58 57 58 51 35 18 14 22 35 42 40 43 40 39 33 27 25 18 12 5 4 4 8 8 13 17 21 26 29
27 23 23 41 49 60 60 52 34 43 44 51 60 63 64 59 59 53 47 29 19 22 29 38 45 43 48 39 39 31 26 22 17 11 7 3 4 6 13 18 21 22 26 29
46 41 31 35 41 43 43 46 49 53 57 60 58 62 67 63 59 50 38 25 24 32 39 41 47 52 49 46 36 33 27 19 15 12 6 1 3 12 17 21 25 30 34 42
Wind_Direction_500mb
200 219 217 218 227 310 285 272 269 276 264 270 260 264 272 267 264 263 268 250 237 221 216 213 209 216 221 228 235 240 242 243 241 237 229 222 221 220 227 236 250 255 258 268
192 228 241 267 225 236 244 259 260 277 289 250 265 272 269 255 268 280 279 238 223 214 204 199 211 217 224 233 239 243 246 246 244 234 217 212 210 214 219 240 246 252 264 276
247 75 235 212 206 231 239 261 278 286 296 270 264 262 248 221 255 262 257 237 222 217 209 214 210 212 224 234 240 240 239 242 236 215 221 229 235 237 237 239 246 260 276 282
244 226 206 221 240 235 262 260 261 271 263 258 206 273 184 212 253 208 233 217 221 221 220 216 215 213 221 221 225 225 228 228 224 215 218 229 221 200 204 214 250 273 272 282
218 212 219 232 234 223 263 289 256 275 262 275 248 246 271 202 258 265 170 189 196 215 216 212 212 212 204 217 206 207 203 199 200 201 206 206 185 204 231 248 264 254 279 283
271 186 235 240 240 235 253 217 236 252 251 240 242 245 254 246 357 320 156 284 230 220 211 201 198 211 195 180 182 190 184 190 197 201 205 190 210 225 230 226 228 260 279 295
223 237 223 237 226 187 221 230 245 220 219 246 191 232 250 305 280 287 295 269 271 235 213 199 199 195 182 178 174 173 183 192 195 199 205 208 220 224 219 225 224 275 282 297
231 224 219 221 231 238 209 238 260 269 258 252 149 239 227 238 281 281 284 277 278 229 216 208 205 189 183 180 173 173 181 193 199 207 208 210 202 198 216 233 272 276 283 289
212 233 148 252 239 231 231 237 256 271 265 275 277 249 219 246 258 262 259 273 263 231 214 206 198 188 185 182 180 176 183 192 200 201 192 192 197 202 225 267 281 293 302 295
251 260 224 198 199 214 253 187 213 222 263 254 253 246 267 252 285 328 303 285 267 236 210 199 195 187 186 186 177 176 176 185 188 184 185 191 200 224 252 278 297 302 298 307
252 242 193 187 211 242 183 227 232 295 293 276 269 265 191 279 309 309 311 326 302 222 208 195 194 185 188 185 182 177 172 177 182 180 185 194 212 237 267 300 313 309 299 295
63 256 248 247 266 253 270 279 236 240 237 239 275 275 301 280 291 311 305 318 310 225 203 195 192 184 189 187 184 180 176 176 179 183 191 206 224 250 293 308 301 293 291 294
357 223 247 220 220 215 235 222 236 249 280 264 272 267 208 252 272 291 295 303 289 226 199 197 193 188 190 187 183 178 177 173 178 187 201 214 232 260 275 294 292 290 301 302
302 267 264 282 347 351 228 220 223 225 250 261 255 270 270 287 273 279 282 300 265 224 206 198 193 189 186 185 182 179 179 183 185 192 205 216 237 255 275 288 293 296 304 305
306 257 264 273 281 286 272 270 267 253 254 265 279 284 293 296 286 284 286 289 262 223 210 204 195 192 187 183 180 182 183 186 191 197 200 214 243 271 284 288 288 299 303 303
251 263 265 266 264 267 269 260 255 256 257 261 264 267 277 280 285 283 271 270 264 243 221 205 201 195 191 187 184 185 189 195 191 188 195 214 252 280 281 284 294 295 300 305
279 276 249 263 265 269 266 251 250 254 254 256 260 268 279 295 304 294 282 272 277 255 227 211 200 198 195 191 189 187 188 182 183 181 182 225 269 273 277 287 291 296 302 309
248 246 257 263 279 251 266 265 265 279 276 269 266 276 273 287 311 306 280 274 279 276 235 215 206 202 196 188 178 180 181 179 177 176 194 249 261 262 270 289 292 298 308 310
221 241 256 241 233 259 282 275 260 254 263 354 341 302 280 295 300 318 22 346 295 280 232 208 202 198 189 180 176 174 175 177 171 181 223 237 237 253 281 290 297 302 308 305
208 221 239 244 239 254 41 17 276 232 250 39 5 2 353 333 282 285 348 346 339 313 233 194 189 184 181 173 171 174 175 170 172 210 220 208 227 269 284 291 301 305 301 306
169 207 222 232 249 265 279 291 310 241 56 345 335 343 348 338 326 314 323 330 329 308 208 188 182 180 174 168 172 167 165 169 194 211 204 230 250 271 285 297 309 302 302 305
215 215 205 234 241 249 234 265 286 9 330 331 336 333 333 327 325 321 326 325 321 297 188 177 180 177 169 164 167 163 160 184 204 193 211 220 252 281 287 304 303 296 303 317
248 237 274 222 218 90 287 304 328 321 316 320 326 325 326 323 319 321 321 319 309 256 196 175 172 168 164 161 161 161 178 188 186 187 182 205 260 292 303 306 303 317 312 317
249 258 257 269 250 269 281 297 302 306 315 309 311 311 313 312 312 314 312 309 283 227 184 168 165 161 150 150 156 171 176 176 166 158 184 219 273 303 312 307 310 311 314 314
267 301 271 268 266 274 274 278 303 304 301 301 303 304 301 302 303 304 302 290 247 193 175 165 158 156 156 149 160 169 169 155 154 148 161 226 324 322 305 313 311 309 309 308
253 251 247 258 276 278 278 288 295 292 289 292 295 298 294 294 293 297 288 265 212 182 170 161 153 162 155 159 163 157 153 151 144 134 132 227 338 306 312 318 321 321 322 322
Wind_Speed_850mb
21 18 25 27 23 16 10 12 17 15 8 21 27 32 31 42 23 37 38 40 42 36 32 35 38 42 47 46 48 48 44 45 48 47 40 35 30 27 27 29 38 31 33 32
15 24 20 9 13 17 15 18 22 19 15 13 29 29 33 28 25 26 27 28 34 33 31 32 32 39 45 46 49 50 47 49 48 41 32 28 27 22 22 29 30 31 27 31
25 10 8 20 19 22 24 22 18 21 18 28 27 34 34 19 18 20 20 23 23 29 36 31 30 33 37 44 46 45 42 42 37 36 41 40 37 34 31 26 26 25 30 36
21 21 15 18 29 24 25 11 18 16 14 18 12 24 18 18 18 12 10 16 21 23 28 30 29 31 34 29 35 36 37 31 29 30 32 32 23 21 19 19 23 29 27 26
14 17 26 30 25 21 20 6 15 15 19 19 29 18 29 12 21 13 4 7 10 14 21 26 26 28 28 34 27 31 29 27 26 30 28 23 21 25 24 24 24 19 21 26
29 10 12 13 9 22 5 16 21 19 22 24 31 23 25 20 9 13 8 1 3 10 16 21 24 28 27 27 28 30 30 30 30 30 28 25 28 21 18 15 10 11 16 23
27 28 27 21 20 19 19 16 15 19 20 23 11 14 28 21 13 13 18 14 10 14 20 27 29 27 30 31 30 29 32 29 28 27 26 27 24 21 16 10 9 11 12 16
14 16 31 24 37 25 26 27 20 14 20 19 17 14 11 11 12 18 20 20 20 19 24 31 30 31 33 34 32 29 30 29 28 28 27 24 21 17 13 12 12 13 11 13
9 10 4 8 19 29 34 22 26 29 26 19 25 17 13 33 23 22 19 17 18 19 26 31 32 35 36 35 32 30 30 29 27 27 27 25 20 14 12 13 14 15 17 13
8 15 16 3 11 13 26 1 15 19 26 32 20 21 16 10 16 15 15 15 19 19 25 32 35 38 37 34 31 29 27 27 28 29 26 22 16 13 13 13 13 15 16 15
15 15 8 12 22 21 17 23 18 14 15 20 23 16 1 14 16 20 30 23 18 22 28 35 36 40 39 34 31 30 29 29 29 28 24 18 15 13 12 12 13 12 14 13
4 9 19 33 21 12 25 31 24 20 24 20 21 27 23 19 28 27 35 32 17 16 27 35 40 43 42 37 34 32 31 30 28 26 21 18 14 11 9 9 11 13 11 15
12 11 16 21 20 20 21 24 28 20 20 32 28 24 6 13 28 38 39 31 18 19 29 35 37 44 42 39 36 34 33 30 29 26 21 17 11 6 6 11 13 13 19 19
9 12 18 22 20 17 9 16 18 21 21 28 31 35 30 32 31 43 43 32 22 26 36 38 42 44 43 43 40 38 37 36 30 26 21 14 9 7 10 13 16 20 21 22
8 14 23 24 28 30 29 28 31 31 31 33 30 33 30 30 33 45 43 31 23 31 39 40 45 45 47 46 44 41 41 37 34 25 18 13 11 14 15 18 21 22 21 22
2 16 19 33 33 34 42 40 39 40 41 44 41 43 35 48 47 42 48 41 30 33 38 46 47 49 52 52 50 50 45 43 33 24 17 13 12 13 19 20 19 18 18 22
12 14 18 38 34 37 42 41 49 50 48 40 44 39 34 26 37 38 40 40 42 31 39 51 59 61 59 58 55 54 49 38 28 20 15 10 13 17 15 14 15 17 20 23
17 18 19 22 21 38 27 32 24 26 29 30 33 26 28 32 39 40 40 41 42 24 29 44 51 55 56 47 44 40 38 32 25 19 12 12 15 10 10 14 16 19 20 23
36 23 17 22 26 39 50 37 31 29 32 16 29 29 41 39 45 32 49 40 35 27 24 39 48 51 50 48 46 43 40 32 24 16 12 11 8 9 11 15 17 19 22 24
26 28 23 17 28 23 8 17 11 23 29 23 25 25 32 38 21 12 65 52 38 19 14 32 44 51 54 51 50 45 40 31 22 16 13 9 7 10 11 15 18 20 21 24
14 16 33 29 26 18 17 26 22 16 9 26 29 29 33 24 31 52 54 47 33 13 12 23 41 54 54 56 53 44 36 27 21 15 10 9 7 9 12 16 20 19 20 24
21 14 15 22 31 35 14 13 18 22 32 38 36 36 41 42 47 49 49 41 27 11 12 28 38 44 49 51 48 44 34 26 17 14 10 6 5 7 12 17 18 19 21 25
20 27 15 20 10 7 5 7 19 28 44 43 52 54 53 55 53 56 54 40 24 12 16 28 38 42 43 45 43 42 33 22 18 12 8 5 5 8 11 13 15 17 22 27
23 34 19 29 27 37 43 37 46 47 31 42 45 56 57 58 57 58 51 35 18 14 22 35 42 40 43 40 39 33 27 25 18 12 5 4 4 8 8 13 17 21 26 29
27 23 23 41 49 60 60 52 34 43 44 51 60 63 64 59 59 53 47 29 19 22 29 38 45 43 48 39 39 31 26 22 17 11 7 3 4 6 13 18 21 22 26 29
46 41 31 35 41 43 43 46 49 53 57 60 58 62 67 63 59 50 38 25 24 32 39 41 47 52 49 46 36 33 27 19 15 12 6 1 3 12 17 21 25 30 34 42
Wind_Direction_850mb
200 219 217 218 227 310 285 272 269 276 264 270 260 264 272 267 264 263 268 250 237 221 216 213 209 216 221 228 235 240 242 243 241 237 229 222 221 220 227 236 250 255 258 268
192 228 241 267 225 236 244 259 260 277 289 250 265 272 269 255 268 280 279 238 223 214 204 199 211 217 224 233 239 243 246 246 244 234 217 212 210 214 219 240 246 252 264 276
247 75 235 212 206 231 239 261 278 286 296 270 264 262 248 221 255 262 257 237 222 217 209 214 210 212 224 234 240 240 239 242 236 215 221 229 235 237 237 239 246 260 276 282
244 226 206 221 240 235 262 260 261 271 263 258 206 273 184 212 253 208 233 217 221 221 220 216 215 213 221 221 225 225 228 228 224 215 218 229 221 200 204 214 250 273 272 282
218 212 219 232 234 223 263 289 256 275 262 275 248 246 271 202 258 265 170 189 196 215 216 212 212 212 204 217 206 207 203 199 200 201 206 206 185 204 231 248 264 254 279 283
271 186 235 240 240 235 253 217 236 252 251 240 242 245 254 246 357 320 156 284 230 220 211 201 198 211 195 180 182 190 184 190 197 201 205 190 210 225 230 226 228 260 279 295
223 237 223 237 226 187 221 230 245 220 219 246 191 232 250 305 280 287 295 269 271 235 213 199 199 195 182 178 174 173 183 192 195 199 205 208 220 224 219 225 224 275 282 297
231 224 219 221 231 238 209 238 260 269 258 252 149 239 227 238 281 281 284 277 278 229 216 208 205 189 183 180 173 173 181 193 199 207 208 210 202 198 216 233 272 276 283 289
212 233 148 252 239 231 231 237 256 271 265 275 277 249 219 246 258 262 259 273 263 231 214 206 198 188 185 182 180 176 183 192 200 201 192 192 197 202 225 267 281 293 302 295
251 260 224 198 199 214 253 187 213 222 263 254 253 246 267 252 285 328 303 285 267 236 210 199 195 187 186 186 177 176 176 185 188 184 185 191 200 224 252 278 297 302 298 307
252 242 193 187 211 242 183 227 232 295 293 276 269 265 191 279 309 309 311 326 302 222 208 195 194 185 188 185 182 177 172 177 182 180 185 194 212 237 267 300 313 309 299 295
63 256 248 247 266 253 270 279 236 240 237 239 275 275 301 280 291 311 305 318 310 225 203 195 192 184 189 187 184 180 176 176 179 183 191 206 224 250 293 308 301 293 291 294
357 223 247 220 220 215 235 222 236 249 280 264 272 267 208 252 272 291 295 303 289 226 199 197 193 188 190 187 183 178 177 173 178 187 201 214 232 260 275 294 292 290 301 302
302 267 264 282 347 351 228 220 223 225 250 261 255 270 270 287 273 279 282 300 265 224 206 198 193 189 186 185 182 179 179 183 185 192 205 216 237 255 275 288 293 296 304 305
306 257 264 273 281 286 272 270 267 253 254 265 279 284 293 296 286 284 286 289 262 223 210 204 195 192 187 183 180 182 183 186 191 197 200 214 243 271 284 288 288 299 303 303
251 263 265 266 264 267 269 260 255 256 257 261 264 267 277 280 285 283 271 270 264 243 221 205 201 195 191 187 184 185 189 195 191 188 195 214 252 280 281 284 294 295 300 305
279 276 249 263 265 269 266 251 250 254 254 256 260 268 279 295 304 294 282 272 277 255 227 211 200 198 195 191 189 187 188 182 183 181 182 225 269 273 277 287 291 296 302 309
248 246 257 263 279 251 266 265 265 279 276 269 266 276 273 287 311 306 280 274 279 276 235 215 206 202 196 188 178 180 181 179 177 176 194 249 261 262 270 289 292 298 308 310
221 241 256 241 233 259 282 275 260 254 263 354 341 302 280 295 300 318 22 346 295 280 232 208 202 198 189 180 176 174 175 177 171 181 223 237 237 253 281 290 297 302 308 305
208 221 239 244 239 254 41 17 276 232 250 39 5 2 353 333 282 285 348 346 339 313 233 194 189 184 181 173 171 174 175 170 172 210 220 208 227 269 284 291 301 305 301 306
169 207 222 232 249 265 279 291 310 241 56 345 335 343 348 338 326 314 323 330 329 308 208 188 182 180 174 168 172 167 165 169 194 211 204 230 250 271 285 297 309 302 302 305
215 215 205 234 241 249 234 265 286 9 330 331 336 333 333 327 325 321 326 325 321 297 188 177 180 177 169 164 167 163 160 184 204 193 211 220 252 281 287 304 303 296 303 317
248 237 274 222 218 90 287 304 328 321 316 320 326 325 326 323 319 321 321 319 309 256 196 175 172 168 164 161 161 161 178 188 186 187 182 205 260 292 303 306 303 317 312 317
249 258 257 269 250 269 281 297 302 306 315 309 311 311 313 312 312 314 312 309 283 227 184 168 165 161 150 150 156 171 176 176 166 158 184 219 273 303 312 307 310 311 314 314
267 301 271 268 266 274 274 278 303 304 301 301 303 304 301 302 303 304 302 290 247 193 175 165 158 156 156 149 160 169 169 155 154 148 161 226 324 322 305 313 311 309 309 308
253 251 247 258 276 278 278 288 295 292 289 292 295 298 294 294 293 297 288 265 212 182 170 161 153 162 155 159 163 157 153 151 144 134 132 227 338 306 312 318 321 321 322 322